Location: Gulgong NSW 2852, Australia
(32.2976°S, 149.5548°E)
Time: 11:14:00
(UTC+11:00)

N. Korean satellite - Pass Details

Date: 12 December 2021
Orbit: 447 x 491 km, 97.3° (Epoch: 23 January)

Event Time Altitude Azimuth Distance (km) Brightness Sun altitude
Rises 04:31:12 0° 57° (ENE) 2,507 10.4 -14.4°
Reaches altitude 10° 04:34:30 10° 92° (E) 1,656 10.1 -13.8°
Maximum altitude 04:35:40 11° 111° (ESE) 1,583 10.4 -13.6°
Drops below altitude 10° 04:36:50 10° 130° (SE) 1,674 10.8 -13.4°
Sets 04:40:13 0° 165° (SSE) 2,579 11.2 -12.9°
